Location: Peebles
(55.6412°N, 3.1714°W)
Time: 13:29:19
(UTC+01:00)

FENGYUN 1C DEB - Pass Details

Date: 07 July 2022
Orbit: 733 x 848 km, 99.0° (Epoch: 16 August)

Event Time Altitude Azimuth Distance (km) Brightness Sun altitude
Rises 02:41:12 0° 86° (E) 3,211 ? -9.8°
Reaches altitude 10° 02:46:10 10° 43° (NE) 2,266 ? -9.5°
Maximum altitude 02:46:31 10° 39° (NE) 2,260 ? -9.5°
Drops below altitude 10° 02:46:51 10° 35° (NE) 2,264 ? -9.5°
Sets 02:51:47 0° 351° (N) 3,179 ? -9.2°
